Погода в Лукьяновке

Россия / Липецкая область     52°57′47″N   38°14′59″E
темп.,
°C
ветер,
м/с
пор.,
м/с
влажн.,
%
обл.,
%
осадки,
мм/ч
давл.,
гПа
погр.,
м
27 ноября, сб
сб2700:00−1ююз7158098 0.0 1015415
03:00−1ю5128167 0.0 1014294
06:00−2ююв61483100 0.0 1013402
09:000ююв71684100 0.0 1011427
12:00+2ююв91977100 0.0 1009694
15:00+1ююв81797100 0.6 1006804
18:00+1ююв91897100 1.8 1005753
21:00+2ю81595100 2.4 1004564
28 ноября, вс
вс2800:00+2ю61396100 0.0 1005343
03:00+3ю5129899 0.0 1005319
06:00+4ююз51098100 0.0 1005327
09:00+4ююз4998100 0.0 1006269
12:00+5юз3898100 0.0 1007317
15:00+5ююз369757 0.0 1009198
18:00+4ююз459399 0.0 1010251
21:00+5ю4690100 0.0 1010180
29 ноября, пн
пн2900:00+5ююв4989100 0.0 1010303
03:00+4юв51195100 0.0 1008264
06:00+4юв51198100 0.0 1006281
09:00+6вюв61598100 5.8 1002514
12:00+7ююв71697100 3.0 999611
15:00+8ю61398100 3.9 997487
18:00+8ю61394100 0.0 995512
21:00+8юв51198100 0.8 990418
30 ноября, вт
вт3000:00+9ю81696100 9.4 984728
03:00+9ю71594100 12.4 981731
06:00+8зюз111790100 4.4 9811125
09:00+3зюз121878100 4.5 9881088
12:00+2зюз111869100 0.0 9901321
15:00+2юз11187063 0.1 9911425
18:00+1юз11187297 0.0 9921393
21:000юз10177791 0.1 9911198
1 декабря, ср
ср100:00−1юз8147490 0.1 9921075
03:00−1зюз8127696 0.1 9931000
06:00−2зюз8117690 0.0 9931016
09:00−2з7117897 0.0 995971
12:00−2з71184100 0.3 997958
15:00−2зсз7116899 0.6 999933
18:00−3зсз611695 0.0 1001742
21:00−3з510795 0.0 1003566